Sparta, IL

10:04 PM CDT on October 18, 2019 (GMT -0500)
Sparta Community-Hunter

Weather History for KSAR - August, 2019

Change the Weather History Date:

Saturday, August 24, 2019

  Actual Average (KBLV) Record (KBLV)
Temperature  
Mean Temperature 68 °F -  
Max Temperature 76 °F 86 °F 99 °F (1978)
Min Temperature 60 °F 61 °F 50 °F (1966)
Cooling Degree Days 3    
Growing Degree Days 18 (Base 50)    
Moisture  
Dew Point 62 °F    
Average Humidity 80    
Maximum Humidity 100    
Minimum Humidity 57    
Precipitation  
Precipitation 0.00 in - - ()
Sea Level Pressure  
Sea Level Pressure 30.13 in    
Wind  
Wind Speed 6 mph (ENE)    
Max Wind Speed 17 mph    
Max Gust Speed 21 mph    
Visibility 10 miles    
Events      
Averages and records for this station are not official NWS values.
T = Trace of Precipitation, MM = Missing Value Source: NWS Daily Summary

Daily Weather History Graph

Daily Weather History Graph

Search for Another Location

Airport or City:

Astronomy

Aug. 24, 2019 Rise Set
Actual Time 6:21 AM CDT 7:40 PM CDT
Civil Twilight 5:53 AM CDT 8:07 PM CDT
Nautical Twilight 5:20 AM CDT 8:40 PM CDT
Astronomical Twilight 4:46 AM CDT 9:14 PM CDT
Moon 12:16 AM CDT (8/24) 2:53 PM CDT (8/24)
Length of Visible Light 14h 13m
Length of Day
13h 18m
Last Quarter, 39% of the Moon is Illuminated
Aug 24
Last Quarter
Aug 30
New
Sep 5
First Quarter
Sep 13
Full
Sep 21
Last Quarter

Hourly Weather History & Observations

Time (CDT) Temp. Dew Point Humidity Pressure Visibility Wind Dir Wind Speed Gust Speed Precip Events Conditions
12:15 AM 65.8 °F 65.5 °F 99% 30.13 in 10.0 mi ENE 3.5 mph - N/A   Clear
12:35 AM 65.5 °F 65.3 °F 99% 30.13 in 10.0 mi Calm Calm - N/A   Clear
12:55 AM 65.3 °F 65.3 °F 100% 30.14 in 10.0 mi Calm Calm - N/A   Clear
1:15 AM 64.9 °F 64.9 °F 100% 30.13 in 10.0 mi ENE 3.5 mph - N/A   Clear
1:35 AM 64.8 °F 64.8 °F 100% 30.12 in 10.0 mi East 3.5 mph - N/A   Clear
1:55 AM 64.8 °F 64.6 °F 99% 30.14 in 10.0 mi East 3.5 mph - N/A   Clear
2:15 AM 64.8 °F 64.4 °F 99% 30.14 in 10.0 mi ENE 4.6 mph - N/A   Clear
2:35 AM 64.4 °F 64.0 °F 99% 30.14 in 10.0 mi NE 4.6 mph - N/A   Clear
2:55 AM 64.2 °F 63.9 °F 99% 30.15 in 10.0 mi NE 3.5 mph - N/A   Clear
3:15 AM 63.5 °F 63.5 °F 100% 30.15 in 10.0 mi NE 4.6 mph - N/A   Clear
3:35 AM 63.0 °F 63.0 °F 100% 30.15 in 10.0 mi NNE 4.6 mph - N/A   Clear
3:55 AM 62.8 °F 62.8 °F 100% 30.15 in 10.0 mi NE 6.9 mph - N/A   Clear
4:15 AM 62.8 °F 62.6 °F 99% 30.15 in 10.0 mi NE 8.1 mph - N/A   Clear
4:35 AM 62.6 °F 62.1 °F 98% 30.15 in 10.0 mi NE 6.9 mph - N/A   Clear
4:55 AM 62.6 °F 61.9 °F 97% 30.14 in 10.0 mi ENE 6.9 mph - N/A   Clear
5:15 AM 62.1 °F 61.7 °F 99% 30.15 in 10.0 mi ENE 5.8 mph - N/A   Clear
5:35 AM 61.5 °F 61.0 °F 98% 30.15 in 10.0 mi ENE 5.8 mph - N/A   Clear
5:55 AM 61.2 °F 60.8 °F 99% 30.16 in 10.0 mi East 3.5 mph - N/A   Clear
6:15 AM 60.8 °F 60.8 °F 100% 30.17 in 10.0 mi ENE 4.6 mph - N/A   Clear
6:35 AM 60.6 °F 60.4 °F 99% 30.18 in 10.0 mi ENE 3.5 mph - N/A   Clear
6:55 AM 61.2 °F 60.8 °F 99% 30.18 in 10.0 mi ENE 6.9 mph - N/A   Clear
7:15 AM 61.7 °F 60.8 °F 97% 30.18 in 10.0 mi ENE 5.8 mph - N/A   Clear
7:35 AM 62.8 °F 61.3 °F 95% 30.18 in 10.0 mi ENE 6.9 mph - N/A   Clear
7:55 AM 63.9 °F 61.7 °F 93% 30.18 in 10.0 mi ENE 8.1 mph - N/A   Clear
8:15 AM 64.4 °F 61.9 °F 92% 30.18 in 10.0 mi East 6.9 mph - N/A   Clear
8:35 AM 65.7 °F 62.4 °F 89% 30.18 in 10.0 mi East 9.2 mph - N/A   Clear
8:55 AM 67.1 °F 62.1 °F 84% 30.18 in 10.0 mi East 9.2 mph - N/A   Clear
9:15 AM 68.4 °F 61.5 °F 79% 30.18 in 10.0 mi ENE 10.4 mph - N/A   Clear
9:35 AM 69.3 °F 61.3 °F 76% 30.18 in 10.0 mi East 11.5 mph - N/A   Clear
9:55 AM 70.0 °F 60.6 °F 72% 30.18 in 10.0 mi East 12.7 mph - N/A   Clear
10:15 AM 70.9 °F 60.4 °F 69% 30.18 in 10.0 mi East 11.5 mph 19.6 mph N/A   Clear
10:55 AM 72.7 °F 59.7 °F 64% 30.18 in 10.0 mi East 12.7 mph - N/A   Clear
11:15 AM 73.0 °F 59.2 °F 62% 30.17 in 10.0 mi East 12.7 mph 19.6 mph N/A   Clear
11:35 AM 73.8 °F 59.0 °F 60% 30.16 in 10.0 mi ENE 17.3 mph 20.7 mph N/A   Clear
11:55 AM 74.3 °F 59.4 °F 60% 30.15 in 10.0 mi East 9.2 mph - N/A   Clear
12:15 PM 74.7 °F 58.5 °F 57% 30.15 in 10.0 mi East 16.1 mph - N/A   Clear
12:35 PM 74.8 °F 59.7 °F 59% 30.14 in 10.0 mi East 11.5 mph 19.6 mph N/A   Clear
12:55 PM 75.4 °F 59.5 °F 58% 30.14 in 10.0 mi East 11.5 mph 18.4 mph N/A   Clear
1:15 PM 75.6 °F 59.2 °F 57% 30.13 in 10.0 mi ENE 9.2 mph 20.7 mph N/A   Clear
1:35 PM 74.3 °F 59.9 °F 61% 30.13 in 10.0 mi East 12.7 mph 18.4 mph N/A   Clear
1:55 PM 74.7 °F 59.9 °F 60% 30.12 in 10.0 mi East 13.8 mph 17.3 mph N/A   Clear
2:15 PM 74.8 °F 59.4 °F 58% 30.13 in 10.0 mi East 11.5 mph - N/A   Clear
2:35 PM 75.0 °F 60.1 °F 60% 30.12 in 10.0 mi East 9.2 mph - N/A   Clear
2:55 PM 74.3 °F 60.3 °F 61% 30.11 in 10.0 mi East 10.4 mph - N/A   Clear
3:15 PM 76.1 °F 61.0 °F 59% 30.11 in 10.0 mi ENE 10.4 mph - N/A   Clear
3:35 PM 74.5 °F 60.8 °F 62% 30.10 in 10.0 mi ENE 10.4 mph - N/A   Clear
3:55 PM 76.1 °F 61.0 °F 59% 30.10 in 10.0 mi ENE 11.5 mph 17.3 mph N/A   Clear
4:15 PM 75.6 °F 60.6 °F 60% 30.09 in 10.0 mi East 10.4 mph 16.1 mph N/A   Clear
4:35 PM 75.9 °F 60.8 °F 59% 30.09 in 10.0 mi NE 11.5 mph 16.1 mph N/A   Clear
4:55 PM 74.7 °F 61.2 °F 63% 30.09 in 10.0 mi ENE 11.5 mph - N/A   Clear
5:15 PM 74.3 °F 60.8 °F 63% 30.09 in 10.0 mi ENE 9.2 mph - N/A   Clear
5:35 PM 73.9 °F 60.8 °F 63% 30.09 in 10.0 mi East 10.4 mph - N/A   Clear
5:55 PM 73.8 °F 61.0 °F 64% 30.08 in 10.0 mi East 8.1 mph - N/A   Clear
6:15 PM 73.8 °F 61.7 °F 66% 30.08 in 10.0 mi East 8.1 mph - N/A   Clear
6:35 PM 72.5 °F 61.0 °F 67% 30.08 in 10.0 mi East 6.9 mph - N/A   Clear
6:55 PM 71.4 °F 61.5 °F 71% 30.08 in 10.0 mi East 6.9 mph - N/A   Clear
7:15 PM 70.5 °F 62.1 °F 74% 30.09 in 10.0 mi East 4.6 mph - N/A   Clear
7:35 PM 68.9 °F 62.2 °F 79% 30.09 in 10.0 mi ENE 4.6 mph - N/A   Clear
7:55 PM 68.0 °F 62.6 °F 83% 30.10 in 10.0 mi ENE 3.5 mph - N/A   Clear
8:15 PM 68.0 °F 63.0 °F 84% 30.11 in 10.0 mi Calm Calm - N/A   Clear
8:35 PM 68.0 °F 62.4 °F 82% 30.11 in 10.0 mi Calm Calm - N/A   Clear
8:55 PM 67.5 °F 62.6 °F 84% 30.11 in 10.0 mi NE 4.6 mph - N/A   Clear
9:15 PM 67.3 °F 62.4 °F 84% 30.11 in 10.0 mi NE 5.8 mph - N/A   Clear
9:35 PM 67.1 °F 62.1 °F 84% 30.12 in 10.0 mi NE 4.6 mph - N/A   Clear
9:55 PM 67.3 °F 61.7 °F 82% 30.10 in 10.0 mi NE 6.9 mph - N/A   Clear
10:15 PM 67.5 °F 61.3 °F 81% 30.10 in 10.0 mi ENE 5.8 mph - N/A   Clear
10:35 PM 66.7 °F 61.9 °F 84% 30.10 in 10.0 mi Calm Calm - N/A   Clear
10:55 PM 66.6 °F 62.1 °F 85% 30.10 in 10.0 mi ENE 3.5 mph - N/A   Clear
11:15 PM 66.2 °F 61.7 °F 85% 30.10 in 10.0 mi Calm Calm - N/A   Clear
11:35 PM 66.0 °F 61.7 °F 86% 30.10 in 10.0 mi Calm Calm - N/A   Clear
11:55 PM 65.3 °F 61.2 °F 86% 30.10 in 10.0 mi Calm Calm - N/A   Clear